OPS 3367 A

Satellite information

Favourite Embed

Satellite Type and Status

PAYLOADIN ORBIT

Key statistics

Satellite OPS 3367 A at a glance.

Uptime

22390

Days in orbit

Revolutions

≈ 14.3

Per day

Orbit

SSO

Sun Synchronous Orbit

Inclination

99.0

Latest

Satellite identification and parameters

Extended collection of information and parameters for OPS 3367 A.

Object identification

Identified? True

Debris? False

Object name: OPS 3367 A

International designator: 1964-002B

Object number (NORAD): 734

Object ID (CCSDS): 734

Country: UNITED STATES OF AMERICA (US)

Current information (Y/N): Y

RCS size: MEDIUM

Orbital parameters

Period: 100.731 minutes

Inclination: 98.9732 deg

SMA: 7171.389 km

Apoapsis: 802.898 km

Periapsis: 783.611 km

RAAN: 40.8094 deg

Eccentricy: 0.0013447

Argument of periapsis: 285.4491 deg

Mean anomaly: 74.5205 deg

Mean motion: 14.29544993 rev/day

Mean motion (dot): 0.00000158 rev/day2

B* drag term: 0.000080186 1/REarth

Two-line elements (TLE)

Creation date: May 8, 2025, 3:01 a.m.

Reference frame: TEME

Reference center: EARTH

Epoch: May 7, 2025, 5:32 p.m. UTC

TLE line 0: 0 OPS 3367 A

TLE line 1: 1 00734U 64002B 25127.73114096 .00000158 00000-0 80186-4 0 9995

TLE line 2: 2 00734 98.9732 40.8094 0013447 285.4491 74.5205 14.29544993190835

Live tracking on map

Real-time ground track for satellite OPS 3367 A.

In-orbit conjunctions

There are no conjunctions computed for OPS 3367 A, at the moment. Check back to stay up to date, as we update our databases every day.

Go to all conjunctions

Associated space launch

The DSAP-1 (Defense Satellite Application Program Block 1) satellites series, also known as P-35, was the first series of military meteorologal satellites of the USA.

OPS 3367 A was lifted into orbit during the mission ‘Thor SLV-2 Agena D | DSAP-1 F6 & F7’, on board a Thor SLV-2 Agena D space rocket.

The launch took place on Jan. 19, 1964, 10:59 a.m. from Space Launch Complex 2W.

For more information about the launch, click the button.

Launch to space Thor SLV-2 Agena D | DSAP-1 F6 & F7
Thor SLV-2 Agena D | DSAP-1 F6 & F7

Agency: N/A

Status: Launch Successful

Launch date: Jan. 19, 1964, 10:59 a.m. UTC

Rocket: Thor SLV-2 Agena D

Launch pad: Space Launch Complex 2W

Location: Vandenberg SFB, CA, USA

...

Latest news about this satellite

There are no fresh news available about this satellite. Check back as we update our databases every day.


Newsletter sign-up

Weekly statistics, charts and insights to help you stay on top of the space industry.